Date,TemperatureHighF,TemperatureAvgF,TemperatureLowF,DewpointHighF,DewpointAvgF,DewpointLowF,HumidityHigh,HumidityAvg,HumidityLow,PressureMaxIn,PressureMinIn,WindSpeedMaxMPH,WindSpeedAvgMPH,GustSpeedMaxMPH,PrecipitationSumIn
2013-1-1,58,47,38,49,42,34,91,83,64,30.15,30.06,7,3,12,0.08
2013-1-2,56,52,48,49,47,45,92,84,73,30.26,30.03,12,4,23,0.17
2013-1-3,61,52,46,47,44,41,87,76,57,30.49,30.26,10,5,17,0.00
2013-1-4,59,50,41,49,43,39,91,79,64,30.48,30.29,8,3,12,0.00
2013-1-5,58,48,42,48,43,39,92,83,70,30.29,30.08,9,3,16,0.00
2013-1-6,59,48,41,51,44,38,93,86,71,30.21,30.07,10,3,12,0.00
2013-1-7,62,51,44,49,46,41,93,82,61,30.21,30.05,10,3,14,0.00
2013-1-8,55,48,41,47,43,38,91,84,73,30.28,30.20,7,2,9,0.00
2013-1-9,56,51,46,46,45,43,91,81,68,30.20,30.10,5,1,8,0.00
2013-1-10,53,51,48,49,46,43,94,84,70,30.10,29.81,10,3,20,0.23
2013-1-11,56,48,41,51,44,40,97,89,67,29.85,29.67,17,4,35,0.02
2013-1-12,56,48,40,49,43,38,93,83,72,30.01,29.84,7,2,13,0.00
2013-1-13,57,52,48,53,48,44,94,88,81,30.00,29.73,17,7,36,0.60
2013-1-14,56,53,49,52,47,41,94,80,68,29.89,29.70,16,6,29,0.09
2013-1-15,55,48,44,44,41,38,89,77,55,29.89,29.55,10,4,21,0.03
2013-1-16,49,44,40,44,40,37,93,88,67,29.55,29.41,14,5,26,0.79
2013-1-17,50,43,38,46,40,35,92,88,79,29.43,29.27,16,5,25,0.09
2013-1-18,49,43,38,38,35,32,93,76,59,29.62,29.34,21,7,35,0.02
2013-1-19,54,43,35,52,39,32,94,85,81,29.63,29.49,17,7,35,0.07
2013-1-20,59,57,54,57,54,51,95,91,84,29.50,29.42,18,11,35,0.15
2013-1-21,56,52,47,52,47,42,94,85,61,29.52,29.37,16,5,27,0.13
2013-1-22,56,50,43,47,41,36,90,71,52,29.77,29.51,17,5,27,0.00
2013-1-23,50,47,43,46,43,39,91,85,78,29.78,29.54,14,5,26,0.30
2013-1-24,55,47,43,46,42,38,94,83,65,29.54,29.38,10,4,18,0.13
2013-1-25,54,46,40,41,37,34,89,72,56,29.63,29.42,16,8,26,0.00
2013-1-26,52,44,39,34,32,30,76,63,49,29.85,29.62,12,6,18,0.00
2013-1-27,55,42,35,40,34,29,82,71,53,29.97,29.85,10,3,15,0.00
2013-1-28,50,47,42,47,42,36,93,85,67,30.03,29.79,13,7,25,0.32
2013-1-29,58,48,41,46,43,38,92,81,60,30.23,30.03,12,3,15,0.00
2013-1-30,61,50,41,51,44,39,92,82,56,30.22,30.14,8,3,12,0.00
2013-1-31,65,55,47,54,50,44,95,84,63,30.18,30.10,10,3,15,0.00
2013-2-1,60,54,47,54,51,45,95,88,76,30.14,29.70,13,5,24,0.00
2013-2-2,60,55,52,54,50,40,93,83,62,29.70,29.24,20,11,33,0.05
2013-2-3,54,49,44,43,38,28,89,68,51,29.94,29.30,15,6,26,0.04
2013-2-4,57,46,37,39,32,22,75,58,30,30.13,29.94,13,4,15,0.00
2013-2-5,54,49,42,50,43,36,94,82,72,30.11,29.76,12,4,22,0.02
2013-2-6,55,50,44,49,42,34,94,75,48,29.77,29.48,18,6,31,0.05
2013-2-7,50,44,40,44,40,36,94,85,69,29.55,29.43,13,5,20,0.55
2013-2-8,53,45,40,37,32,28,81,62,47,29.73,29.54,16,7,22,0.00
2013-2-9,50,42,37,35,28,24,81,57,41,29.86,29.72,14,6,25,0.00
2013-2-10,50,41,34,28,24,12,75,52,23,29.93,29.85,10,3,20,0.00
2013-2-11,55,46,38,48,38,22,93,75,45,29.93,29.51,22,9,35,0.60
2013-2-12,56,48,43,47,44,41,94,85,65,29.67,29.52,7,2,13,0.00
2013-2-13,56,46,39,42,37,34,92,73,48,29.79,29.65,12,4,22,0.00
2013-2-14,58,47,38,41,37,34,83,69,46,29.97,29.80,12,5,16,0.00
2013-2-15,56,46,38,41,38,34,92,74,50,29.99,29.93,6,1,9,0.00
2013-2-16,58,48,39,43,39,36,88,73,47,30.04,29.96,10,3,17,0.00
2013-2-17,54,45,39,44,39,35,87,80,69,30.04,29.95,12,2,20,0.55
2013-2-18,54,45,39,43,39,36,94,80,59,29.98,29.92,8,3,15,0.01
2013-2-19,56,45,36,38,35,32,86,68,39,29.99,29.91,10,3,15,0.00
2013-2-20,55,45,36,41,37,32,85,72,54,29.97,29.88,7,2,12,0.00
2013-2-21,57,47,37,45,39,34,89,75,53,29.89,29.65,9,2,12,0.01
2013-2-22,55,51,47,51,47,45,92,87,75,29.65,29.41,13,6,24,0.03
2013-2-23,56,50,41,54,46,39,94,86,70,29.59,29.37,23,8,41,0.31
2013-2-24,50,45,40,41,37,32,87,73,52,29.90,29.59,17,5,28,0.12
2013-2-25,45,42,39,40,38,35,93,86,76,30.02,29.90,15,5,23,0.40
2013-2-26,55,46,39,43,40,36,92,78,59,30.10,30.00,7,2,9,0.00
2013-2-27,57,48,39,42,38,35,90,69,49,30.18,30.10,13,3,18,0.00
2013-2-28,59,48,38,45,40,34,87,73,53,30.21,30.11,8,3,16,0.00
2013-3-1,56,51,45,43,41,39,83,70,59,30.11,29.83,9,4,13,0.00
2013-3-2,62,54,49,45,41,33,81,61,42,29.97,29.76,12,6,20,0.00
2013-3-3,62,51,42,48,41,34,90,70,57,30.04,29.97,8,3,15,0.00
2013-3-4,60,50,41,48,43,39,92,78,58,30.17,30.04,9,2,16,0.00
2013-3-5,58,52,43,46,42,35,90,70,43,30.17,29.92,9,3,17,0.02
2013-3-6,61,57,54,56,48,39,96,75,48,29.92,29.67,23,10,40,0.26
2013-3-7,62,58,56,58,55,54,96,92,81,29.76,29.67,10,4,17,0.02
2013-3-8,60,57,55,56,54,53,95,91,83,29.75,29.61,15,6,30,0.05
2013-3-9,65,58,52,56,53,49,97,84,57,29.76,29.65,13,5,23,0.01
2013-3-10,62,57,52,56,52,47,95,84,64,29.68,29.50,16,5,29,0.46
2013-3-11,61,56,49,54,51,45,94,83,70,29.59,29.52,15,4,25,0.23
2013-3-12,59,51,46,53,48,44,96,89,80,29.58,29.48,14,4,25,0.33
2013-3-13,54,49,45,52,47,43,95,92,84,29.51,29.25,9,3,20,0.20
2013-3-14,58,50,43,47,42,36,96,76,53,29.27,29.10,17,5,29,0.01
2013-3-15,56,48,43,37,32,27,72,56,39,29.85,29.27,15,4,25,0.00
2013-3-16,54,45,37,37,31,27,72,59,42,30.10,29.85,9,2,15,0.00
2013-3-17,52,49,41,46,40,34,86,71,59,30.09,29.73,17,8,36,0.01
2013-3-18,58,55,50,56,50,46,94,85,67,29.73,29.48,23,13,40,0.12
2013-3-19,59,55,49,48,46,44,86,73,61,29.79,29.65,20,7,27,0.00
2013-3-20,58,51,45,49,45,40,93,81,59,29.78,29.64,12,4,21,0.20
2013-3-21,63,54,47,50,44,35,94,70,36,29.94,29.64,20,6,27,0.00
2013-3-22,65,53,42,49,43,31,90,71,30,29.93,29.85,10,2,15,0.00
2013-3-23,62,54,45,52,48,42,92,83,64,29.92,29.75,10,3,20,0.00
2013-3-24,70,60,49,51,47,39,94,65,33,29.75,29.40,18,5,30,0.00
2013-3-25,61,55,49,54,50,41,94,81,67,29.52,29.27,16,3,24,0.43
2013-3-26,56,51,47,52,47,40,95,87,74,29.56,29.49,8,2,18,0.35
2013-3-27,62,54,46,52,49,45,94,83,56,29.79,29.56,9,2,13,0.00
2013-3-28,60,55,52,56,52,49,94,90,85,29.86,29.78,10,3,21,0.07
2013-3-29,63,59,56,57,55,54,94,87,74,29.86,29.75,13,6,22,0.00
2013-3-30,62,58,56,56,54,52,95,88,80,29.75,29.45,20,10,31,0.04
2013-3-31,60,56,52,54,51,46,95,82,71,29.65,29.44,18,7,29,0.20
2013-4-1,61,56,51,52,48,45,94,77,60,29.70,29.49,15,6,30,0.13
2013-4-2,59,55,51,56,53,49,96,92,84,29.55,29.40,13,4,24,0.57
2013-4-3,62,56,51,51,49,44,94,78,55,29.75,29.55,12,2,17,0.02
2013-4-4,65,56,48,51,47,42,91,74,44,29.77,29.48,14,5,29,0.00
2013-4-5,63,57,53,55,52,46,95,82,57,29.76,29.42,17,5,33,0.05
2013-4-6,65,57,49,56,51,46,91,81,58,29.78,29.72,12,2,21,0.00
2013-4-7,69,60,53,53,47,38,87,65,44,29.75,29.62,16,6,26,0.00
2013-4-8,63,55,48,50,42,37,85,64,45,29.85,29.75,13,4,20,0.00
2013-4-9,64,57,53,53,51,45,93,80,57,29.90,29.80,9,4,18,0.00
2013-4-10,64,58,53,55,52,50,89,80,66,29.99,29.86,9,3,22,0.00
2013-4-11,66,58,50,55,50,46,91,75,49,30.03,29.98,9,2,18,0.00
2013-4-12,66,60,56,57,55,52,92,83,66,30.00,29.92,16,8,30,0.00
2013-4-13,71,61,54,56,54,49,94,79,47,30.25,30.00,9,2,15,0.00
2013-4-14,74,63,52,56,51,47,93,68,43,30.31,30.24,8,2,14,0.00
2013-4-15,74,63,54,58,53,48,94,72,42,30.25,30.12,8,2,15,0.00
2013-4-16,73,62,53,61,55,48,97,79,41,30.15,30.10,9,2,15,0.02
2013-4-17,74,64,55,58,54,40,94,75,31,30.19,30.13,8,1,12,0.00
2013-4-18,76,64,54,59,54,47,96,73,38,30.16,30.03,7,2,13,0.01
2013-4-19,75,65,57,63,56,45,96,75,40,30.04,29.92,9,1,14,0.00
2013-4-20,64,59,53,58,52,47,96,77,61,30.02,29.94,10,3,16,0.00
2013-4-21,64,57,51,52,47,42,88,71,48,30.02,29.93,10,2,17,0.09
2013-4-22,56,52,50,52,48,44,91,85,69,30.01,29.86,9,3,17,0.33
2013-4-23,66,58,51,53,50,47,92,74,55,30.24,30.01,8,1,12,0.09
2013-4-24,77,65,55,55,51,48,83,62,39,30.31,30.23,9,3,14,0.00
2013-4-25,80,69,60,58,52,46,79,57,35,30.26,30.09,9,3,15,0.00
2013-4-26,68,64,59,61,56,52,88,75,63,30.13,29.94,10,2,21,0.04
2013-4-27,64,61,55,59,56,52,93,85,76,29.94,29.75,14,6,29,0.02
2013-4-28,76,68,59,60,57,53,95,71,45,29.95,29.83,8,2,20,0.00
2013-4-29,83,74,64,59,52,44,72,48,31,30.00,29.93,14,4,25,0.00
2013-4-30,84,73,67,59,53,44,63,50,31,30.06,29.97,14,4,24,0.00
2013-5-1,78,70,64,60,56,47,84,62,37,30.05,29.97,16,3,27,0.05
2013-5-2,75,67,62,64,61,58,93,81,61,30.01,29.90,13,3,20,0.15
2013-5-3,81,69,59,62,58,54,89,70,43,29.95,29.88,15,4,23,0.00
2013-5-4,81,70,61,64,58,53,87,67,45,29.97,29.89,9,2,15,0.00
2013-5-5,72,66,62,63,59,53,91,78,59,30.00,29.93,10,2,16,0.16
2013-5-6,66,62,59,63,59,57,95,92,86,29.96,29.87,8,2,14,0.37
2013-5-7,70,63,59,63,59,57,95,87,69,30.01,29.95,9,2,15,0.10
2013-5-8,73,65,57,61,57,54,93,77,59,29.97,29.90,9,2,14,0.00
2013-5-9,77,67,58,61,58,55,92,75,52,29.98,29.92,9,2,15,0.00
2013-5-10,71,66,61,64,61,59,95,85,68,29.96,29.91,8,1,14,0.00
2013-5-11,70,65,59,61,59,56,96,83,65,29.93,29.83,9,2,17,0.00
2013-5-12,70,63,56,60,57,54,92,79,62,29.88,29.82,18,4,25,0.00
2013-5-13,75,65,57,57,52,40,88,66,30,29.97,29.87,18,5,30,0.00
2013-5-14,74,65,54,59,52,45,87,65,37,29.99,29.87,7,2,15,0.00
2013-5-15,69,62,55,60,56,52,93,81,57,29.86,29.67,14,3,27,0.00
2013-5-16,73,67,60,62,57,52,90,73,56,29.67,29.50,18,6,41,0.11
2013-5-17,67,64,58,62,57,49,94,79,54,29.90,29.54,12,4,22,0.11
2013-5-18,78,67,58,59,54,49,88,66,40,29.97,29.80,10,3,24,0.00
2013-5-19,70,65,59,60,54,47,85,68,48,30.05,29.79,15,5,21,0.00
2013-5-20,70,63,56,56,52,47,88,68,45,30.10,30.05,9,2,17,0.00
2013-5-21,69,62,56,56,52,47,90,70,48,30.08,29.82,8,2,15,0.13
2013-5-22,76,64,59,64,58,55,92,83,57,29.81,29.38,15,6,23,0.69
2013-5-23,67,61,58,59,57,54,94,86,66,29.67,29.43,13,3,21,0.19
2013-5-24,65,61,57,56,51,45,91,71,54,29.88,29.64,23,7,43,0.00
2013-5-25,64,59,55,50,47,42,76,64,47,29.87,29.80,20,6,36,0.00
2013-5-26,66,59,52,51,48,45,85,67,49,30.00,29.80,13,3,20,0.01
2013-5-27,68,61,53,56,51,41,86,72,43,30.01,29.90,12,3,20,0.00
2013-5-28,74,64,58,57,52,45,84,67,38,29.92,29.67,10,3,15,0.00
2013-5-29,67,62,57,60,54,47,91,76,50,29.75,29.68,15,3,24,0.00
2013-5-30,64,59,53,55,51,49,90,77,61,29.75,29.70,17,5,27,0.10
2013-5-31,65,60,53,56,52,50,92,77,62,29.75,29.69,16,5,28,0.02
2013-6-1,68,61,56,59,55,52,93,81,64,29.79,29.69,9,2,20,0.40
2013-6-2,71,63,55,61,58,52,94,83,64,29.94,29.77,8,2,14,0.01
2013-6-3,73,64,57,61,57,54,95,80,58,29.94,29.89,10,2,17,0.00
2013-6-4,74,65,59,61,59,56,91,80,57,29.99,29.90,10,2,20,0.00
2013-6-5,74,67,61,63,60,55,95,79,56,30.04,29.95,9,2,20,0.00
2013-6-6,76,68,59,64,59,55,94,75,55,30.06,29.99,9,2,14,0.00
2013-6-7,80,71,63,62,59,54,83,67,44,30.02,29.95,16,4,23,0.00
2013-6-8,80,71,63,63,60,58,91,71,50,29.98,29.92,9,2,14,0.00
2013-6-9,75,68,61,67,60,53,93,78,51,29.96,29.85,12,3,20,0.01
2013-6-10,73,67,63,62,60,54,95,78,58,29.89,29.84,9,2,21,0.00
2013-6-11,75,68,62,61,59,57,90,74,56,29.93,29.87,15,4,23,0.00
2013-6-12,85,75,64,62,56,48,87,57,29,29.99,29.92,14,3,21,0.00
2013-6-13,88,76,66,60,54,48,65,48,26,30.03,29.94,13,4,21,0.00
2013-6-14,84,75,66,61,56,53,77,54,38,30.02,29.97,15,3,20,0.00
2013-6-15,83,74,64,67,63,60,90,71,52,30.04,30.00,8,1,14,0.00
2013-6-16,84,75,65,68,64,60,87,70,52,30.06,30.01,6,1,12,0.00
2013-6-17,88,78,67,68,64,58,89,64,39,30.04,29.97,9,2,15,0.00
2013-6-18,89,80,69,71,65,62,79,61,42,29.99,29.96,10,2,17,0.00
2013-6-19,92,82,71,69,65,60,80,57,35,30.00,29.96,9,1,14,0.00
2013-6-20,91,80,70,70,66,60,88,64,39,30.00,29.95,9,2,16,0.00
2013-6-21,85,77,70,70,67,62,91,72,48,30.01,29.97,8,2,18,0.00
2013-6-22,83,75,68,68,64,59,86,70,44,30.03,29.96,9,2,14,0.00
2013-6-23,85,74,66,67,64,58,91,72,42,30.02,29.92,13,3,22,0.00
2013-6-24,74,70,65,65,62,56,88,76,57,29.93,29.86,13,4,21,0.00
2013-6-25,79,71,62,63,57,51,84,63,41,30.01,29.92,20,6,26,0.00
2013-6-26,78,70,62,63,58,53,89,67,42,30.06,29.99,17,3,24,0.00
2013-6-27,78,69,60,60,56,52,82,65,41,30.06,30.00,13,3,22,0.00
2013-6-28,77,69,61,63,59,53,92,71,45,30.03,29.93,16,4,29,0.00
2013-6-29,80,70,59,57,53,48,84,58,34,30.00,29.92,15,5,26,0.00
2013-6-30,80,71,62,61,52,46,81,52,34,30.06,29.99,10,3,16,0.00
2013-7-1,81,72,62,61,57,51,83,60,39,30.09,30.04,12,2,17,0.00
2013-7-2,84,75,65,61,57,52,74,55,36,30.08,30.01,10,2,16,0.00
2013-7-3,82,73,64,67,60,51,90,66,36,30.04,29.95,10,2,16,0.00
2013-7-4,80,72,65,68,63,55,92,75,45,30.03,29.93,10,3,15,0.28
2013-7-5,91,77,66,66,62,54,92,63,31,30.05,30.00,10,3,16,0.00
2013-7-6,90,79,72,68,60,53,78,53,31,30.06,30.01,14,3,26,0.08
2013-7-7,89,77,70,68,64,59,88,66,38,30.06,29.99,13,3,20,0.07
2013-7-8,89,76,67,69,65,61,89,71,42,30.08,30.02,9,2,16,0.01
2013-7-9,86,76,67,66,64,61,89,68,45,30.08,29.96,12,2,20,0.00
2013-7-10,86,76,67,71,65,61,85,70,45,29.97,29.84,12,2,20,0.00
2013-7-11,85,77,69,72,67,63,87,72,55,29.92,29.84,10,2,18,0.00
2013-7-12,86,79,70,72,66,63,89,68,47,30.00,29.92,12,3,18,0.00
2013-7-13,85,78,68,71,68,64,95,73,53,30.02,29.97,10,2,16,0.00
2013-7-14,87,79,71,70,68,65,89,69,49,30.00,29.93,15,3,22,0.00
2013-7-15,86,78,71,71,67,64,87,69,50,30.01,29.97,9,2,16,0.00
2013-7-16,87,79,70,69,66,62,91,66,45,30.07,30.00,10,2,18,0.00
2013-7-17,89,79,72,72,68,58,88,69,36,30.06,29.99,9,2,18,0.00
2013-7-18,84,78,72,72,70,66,91,77,62,30.04,30.00,12,2,22,0.00
2013-7-19,83,76,71,72,69,64,91,78,65,30.05,29.97,10,1,16,0.09
2013-7-20,86,77,67,70,65,62,87,70,46,29.99,29.92,10,3,16,0.00
2013-7-21,90,76,66,70,66,60,91,73,42,30.03,29.93,24,2,37,0.74
2013-7-22,91,77,67,72,66,60,89,70,37,29.99,29.91,10,2,17,0.00
2013-7-23,92,81,70,73,67,58,91,68,34,29.94,29.89,12,2,20,0.00
2013-7-24,91,81,71,74,69,59,94,70,35,30.02,29.93,14,3,22,0.00
2013-7-25,88,80,72,74,71,67,92,75,57,30.02,29.98,8,1,15,0.00
2013-7-26,91,82,73,74,70,64,94,70,45,30.00,29.93,12,2,20,0.00
2013-7-27,94,83,75,72,69,65,82,64,41,29.94,29.91,13,2,20,0.00
2013-7-28,95,84,74,72,67,60,85,60,33,30.03,29.94,9,2,14,0.00
2013-7-29,92,83,74,78,67,58,92,63,33,30.04,29.97,12,3,20,0.00
2013-7-30,88,81,76,76,67,60,93,63,39,29.99,29.91,18,6,25,0.00
2013-7-31,90,81,74,70,62,54,77,54,30,29.94,29.88,15,4,24,0.00
2013-8-1,93,81,75,70,60,54,81,51,28,29.98,29.92,14,4,22,0.00
2013-8-2,90,82,73,73,67,62,81,62,42,30.03,29.96,9,2,16,0.00
2013-8-3,94,83,75,69,66,61,78,59,39,30.04,29.99,14,4,21,0.00
2013-8-4,96,85,75,68,64,54,72,52,25,30.05,29.99,13,3,20,0.00
2013-8-5,96,84,73,69,62,56,70,50,29,30.01,29.93,12,2,16,0.00
2013-8-6,95,85,76,73,67,59,76,57,40,29.97,29.91,8,1,15,0.00
2013-8-7,95,84,72,72,66,56,83,56,28,29.93,29.88,8,1,15,0.00
2013-8-8,97,86,74,68,59,51,62,42,23,29.94,29.89,8,2,15,0.00
2013-8-9,90,80,72,67,63,57,81,57,39,29.92,29.80,18,5,34,0.00
2013-8-10,92,80,71,69,64,58,83,59,34,29.89,29.78,16,2,21,0.00
2013-8-11,90,80,72,68,63,58,75,58,36,29.92,29.87,10,3,16,0.00
2013-8-12,90,81,72,68,61,54,79,53,31,29.97,29.91,12,3,18,0.00
2013-8-13,89,79,70,70,64,56,82,61,35,29.97,29.92,9,2,16,0.00
2013-8-14,87,79,70,71,67,63,92,70,45,29.94,29.88,9,2,16,0.00
2013-8-15,89,80,73,72,65,62,86,62,42,30.00,29.91,10,3,15,0.00
2013-8-16,88,80,72,73,65,58,77,60,47,30.01,29.95,9,4,16,0.00
2013-8-17,90,80,71,70,63,58,80,60,37,30.01,29.96,10,2,17,0.00
2013-8-18,89,78,70,72,65,60,87,65,41,30.05,29.99,10,2,17,0.00
2013-8-19,88,78,70,72,69,62,90,73,44,30.03,29.94,13,3,20,0.00
2013-8-20,82,75,71,71,66,62,91,76,57,29.96,29.89,12,3,27,0.54
2013-8-21,89,78,69,64,61,57,76,59,36,29.96,29.91,13,4,22,0.00
2013-8-22,87,77,69,69,64,60,82,64,46,29.96,29.91,10,2,15,0.00
2013-8-23,87,78,67,69,65,60,90,67,42,29.97,29.92,13,2,21,0.00
2013-8-24,86,77,69,71,67,62,85,72,49,29.98,29.87,9,2,18,0.00
2013-8-25,80,74,68,71,69,63,94,83,58,29.89,29.75,14,4,26,0.98
2013-8-26,80,75,70,71,67,63,88,76,63,29.86,29.80,13,3,22,0.03
2013-8-27,79,73,66,70,67,63,93,83,69,29.88,29.80,14,2,25,1.42
2013-8-28,80,74,68,69,66,62,92,77,59,29.96,29.82,10,2,16,0.02
2013-8-29,83,74,66,68,65,60,88,75,48,30.05,29.95,8,1,15,0.00
2013-8-30,84,75,68,68,65,62,88,73,53,30.04,29.95,10,2,17,0.00
2013-8-31,82,75,68,69,65,61,84,73,60,30.03,29.97,12,3,20,0.00
2013-9-1,85,75,66,67,62,54,85,64,41,30.05,29.99,8,2,20,0.00
2013-9-2,85,75,67,67,63,56,85,67,38,30.13,30.04,9,2,14,0.00
2013-9-3,85,76,68,69,65,59,84,70,55,30.17,30.12,8,2,13,0.00
2013-9-4,90,78,68,69,64,56,87,65,34,30.17,30.08,10,2,15,0.00
2013-9-5,88,77,68,68,63,57,80,64,38,30.09,29.94,14,2,22,0.00
2013-9-6,88,78,68,69,64,60,80,65,39,29.95,29.88,9,2,16,0.00
2013-9-7,89,78,69,70,66,61,85,69,42,30.08,29.94,13,1,18,0.00
2013-9-8,86,76,69,72,69,66,91,79,58,30.15,30.07,9,1,14,0.00
2013-9-9,83,76,72,73,68,60,92,77,57,30.12,30.04,12,3,20,0.01
2013-9-10,77,72,68,66,64,62,91,77,63,30.07,29.94,9,3,18,0.13
2013-9-11,77,72,66,68,64,59,93,77,60,29.99,29.92,13,4,22,0.12
2013-9-12,75,70,65,61,58,54,79,66,55,29.97,29.90,13,3,23,0.00
2013-9-13,79,69,61,61,58,54,84,69,44,30.09,29.94,12,2,18,0.00
2013-9-14,78,69,61,62,58,54,85,70,45,30.11,30.04,9,2,14,0.00
2013-9-15,73,67,63,67,62,58,93,85,70,30.06,29.81,10,2,21,0.24
2013-9-16,76,69,62,66,61,59,92,78,60,29.81,29.71,14,3,21,0.01
2013-9-17,75,69,62,64,60,51,87,72,44,29.71,29.60,17,5,28,0.00
2013-9-18,75,66,58,61,58,55,89,76,57,29.76,29.70,14,2,22,0.00
2013-9-19,76,70,64,66,63,60,91,80,65,29.82,29.68,9,3,17,0.00
2013-9-20,83,71,62,63,60,57,87,70,43,30.01,29.82,7,2,14,0.00
2013-9-21,82,72,64,65,62,59,85,71,52,30.10,30.01,13,3,20,0.00
2013-9-22,82,72,65,62,59,49,77,64,33,30.17,30.10,16,5,21,0.00
2013-9-23,77,70,62,62,58,50,82,65,50,30.14,30.07,8,3,16,0.00
2013-9-24,78,68,59,64,60,55,89,76,52,30.07,30.01,10,1,15,0.00
2013-9-25,78,68,59,65,61,56,92,78,54,30.04,29.98,8,2,14,0.00
2013-9-26,80,70,61,65,62,58,89,76,54,30.02,29.95,7,1,12,0.00
2013-9-27,80,70,63,65,62,58,91,76,50,29.99,29.94,8,1,13,0.00
2013-9-28,80,70,62,67,64,59,93,82,63,29.96,29.89,8,2,15,0.00
2013-9-29,76,72,69,70,67,65,93,85,78,29.90,29.66,12,6,26,0.09
2013-9-30,79,70,64,69,64,59,94,83,58,29.67,29.57,14,2,23,0.05
2013-10-1,77,68,61,64,61,59,94,80,56,29.78,29.65,12,2,17,0.01
2013-10-2,81,70,62,64,61,57,89,75,49,30.03,29.77,7,1,13,0.00
2013-10-3,78,68,62,63,57,54,87,68,49,30.21,30.03,8,3,13,0.00
2013-10-4,74,67,60,59,56,54,84,70,52,30.25,30.18,8,2,13,0.01
2013-10-5,71,67,60,65,60,54,92,81,60,30.18,30.01,17,4,30,0.39
2013-10-6,76,69,62,68,64,60,95,86,70,30.02,29.94,10,3,17,0.24
2013-10-7,74,69,63,66,64,61,93,84,72,30.08,30.01,9,2,16,0.00
2013-10-8,66,66,66,62,62,62,88,88,88,30.08,30.08,0,0,0,0.00
2013-10-9,69,63,60,64,60,58,94,90,77,30.10,30.00,6,1,14,0.14
2013-10-10,69,63,57,66,60,55,95,90,81,30.03,29.82,9,3,17,0.09
2013-10-11,71,65,61,63,60,56,92,82,69,30.02,29.80,7,2,14,0.02
2013-10-12,75,68,59,67,62,55,90,83,69,30.13,29.96,10,3,17,0.00
2013-10-13,78,68,60,63,60,57,94,77,51,30.15,30.09,8,1,12,0.00
2013-10-14,80,68,60,61,58,54,87,73,44,30.13,30.07,7,2,12,0.00
2013-10-15,72,66,60,65,60,55,91,83,72,30.10,29.91,9,2,13,0.00
2013-10-16,77,70,63,67,62,58,94,77,53,29.91,29.72,14,4,25,0.14
2013-10-17,78,65,56,58,53,42,87,67,28,30.00,29.85,8,1,12,0.00
2013-10-18,76,64,55,63,57,51,89,78,55,30.09,29.99,8,1,12,0.00
2013-10-19,74,66,59,63,60,56,93,83,56,30.23,30.08,10,2,13,0.00
2013-10-20,76,66,58,65,59,53,89,80,64,30.28,30.22,8,2,13,0.00
2013-10-21,76,70,66,67,64,62,91,81,64,30.24,30.19,8,4,20,0.00
2013-10-22,76,68,62,67,63,59,94,85,66,30.21,30.12,9,3,14,0.00
2013-10-23,75,68,61,67,64,59,95,87,70,30.16,30.09,9,3,16,0.00
2013-10-24,71,68,65,65,64,62,94,87,78,30.16,30.08,8,4,16,0.03
2013-10-25,76,68,61,68,64,58,96,86,72,30.18,30.13,6,2,8,0.00
2013-10-26,78,68,60,68,64,58,97,86,64,30.21,30.16,8,1,10,0.01
2013-10-27,74,66,62,65,63,61,96,90,71,30.24,30.17,6,2,9,0.00
2013-10-28,74,68,63,67,64,60,95,88,77,30.18,30.07,10,3,16,0.00
2013-10-29,74,67,60,66,64,58,95,88,75,30.08,29.96,8,3,17,0.01
2013-10-30,75,66,61,65,62,59,93,86,67,30.04,29.92,8,2,12,0.00
2013-10-31,75,66,59,63,60,57,94,81,59,30.14,30.04,8,2,15,0.00
2013-11-1,74,65,58,62,58,55,90,81,62,30.15,30.08,7,2,12,0.00
2013-11-2,71,66,59,64,61,56,93,85,74,30.12,30.01,9,2,18,0.00
2013-11-3,72,67,63,65,63,61,95,87,74,30.05,29.93,13,4,23,0.12
2013-11-4,70,66,61,64,59,56,93,79,61,29.93,29.46,22,4,35,0.02
2013-11-5,68,62,58,60,57,54,96,86,65,29.54,29.37,13,2,17,0.83
2013-11-6,70,61,52,59,56,50,94,83,63,29.89,29.54,9,2,17,0.10
2013-11-7,71,63,53,64,59,51,94,87,76,30.10,29.89,12,3,28,0.02
2013-11-8,72,66,63,65,62,60,91,87,77,30.09,30.05,12,4,20,0.00
2013-11-9,71,66,63,65,61,58,90,85,72,30.05,29.95,12,4,21,0.00
2013-11-10,66,61,53,58,55,47,88,80,66,29.98,29.44,26,6,41,0.03
2013-11-11,57,54,51,51,48,45,91,80,69,29.71,29.40,21,10,37,0.02
2013-11-12,60,56,52,56,52,49,94,87,76,29.94,29.70,10,3,20,0.02
2013-11-13,65,58,53,58,54,50,94,84,72,29.97,29.87,9,4,13,0.02
2013-11-14,70,61,55,58,55,52,89,81,63,29.97,29.85,10,3,14,0.01
2013-11-15,61,58,55,58,55,53,95,92,85,30.00,29.81,9,3,15,0.01
2013-11-16,65,59,54,58,54,50,93,83,69,30.08,29.98,9,3,13,0.04
2013-11-17,68,61,56,58,54,51,92,80,67,30.14,30.06,8,4,18,0.01
2013-11-18,66,60,52,57,53,50,93,78,66,30.07,29.67,13,5,24,0.01
2013-11-19,63,58,53,58,53,51,94,84,66,29.75,29.40,14,4,21,0.00
2013-11-20,62,55,50,58,50,46,95,85,67,29.74,29.29,22,2,35,0.05
2013-11-21,58,54,49,49,45,40,92,73,57,29.73,29.51,14,3,28,0.01
2013-11-22,53,50,48,49,47,45,94,89,79,29.53,29.39,8,2,17,0.01
2013-11-23,49,47,46,48,45,44,94,92,89,29.49,29.39,8,2,18,0.00
2013-11-24,53,49,45,47,45,42,93,87,75,29.71,29.49,7,2,9,0.01
2013-11-25,58,48,41,47,39,27,91,74,50,29.89,29.70,22,8,36,0.01
2013-11-26,47,42,39,34,31,28,74,65,54,30.01,29.89,21,12,41,0.00
2013-11-27,46,42,38,36,33,30,80,73,65,30.27,29.99,14,6,22,0.01
2013-11-28,49,42,35,42,36,32,91,79,65,30.30,30.22,10,6,16,0.00
2013-11-29,59,48,41,45,40,36,87,74,55,30.25,30.08,10,4,14,0.01
2013-11-30,58,47,39,44,40,36,91,76,57,30.08,29.84,7,3,12,0.00
2013-12-1,58,55,48,44,41,38,71,60,52,29.84,29.65,20,11,35,0.00
2013-12-2,67,59,55,55,47,43,80,65,54,30.12,29.72,14,5,26,0.00
2013-12-3,63,55,49,43,39,36,68,56,39,30.22,30.11,13,5,21,0.00
2013-12-4,61,50,42,50,41,33,91,71,58,30.26,30.18,7,2,10,0.00
2013-12-5,59,47,39,47,41,36,91,80,55,30.20,30.12,6,1,9,0.00
2013-12-6,57,50,41,46,42,38,88,76,59,30.12,29.95,7,2,12,0.01
2013-12-7,60,50,42,46,43,39,91,77,59,30.30,29.99,9,2,12,0.00
2013-12-8,61,50,42,50,45,38,89,82,64,30.38,30.29,7,2,15,0.00
2013-12-9,62,54,48,51,48,44,89,79,65,30.42,30.36,7,2,10,0.00
2013-12-10,59,50,43,47,44,40,91,79,62,30.50,30.39,7,2,9,0.01
2013-12-11,61,51,42,53,46,39,93,83,69,30.53,30.48,7,2,9,0.00
2013-12-12,59,50,45,49,46,43,93,86,71,30.49,30.35,10,3,13,0.00
2013-12-13,55,47,42,46,42,39,92,85,70,30.35,30.25,9,4,13,0.00
2013-12-14,53,46,39,46,42,38,96,87,77,30.40,30.31,8,3,12,0.02
2013-12-15,57,51,46,49,46,41,94,83,66,30.48,30.37,13,3,20,0.02
2013-12-16,59,48,40,44,40,37,91,75,51,30.53,30.46,9,3,12,0.00
2013-12-17,60,47,38,49,40,34,89,76,57,30.49,30.39,6,2,10,0.00
2013-12-18,59,46,38,47,39,32,91,78,57,30.39,30.27,7,3,10,0.00
2013-12-19,58,48,37,47,41,34,91,79,65,30.27,30.15,9,4,17,0.00
2013-12-20,58,55,52,53,50,46,93,84,71,30.47,30.14,8,4,18,0.04
2013-12-21,63,54,48,53,50,46,94,86,66,30.57,30.47,6,2,10,0.00
2013-12-22,59,51,46,51,47,44,93,87,74,30.53,30.39,6,2,8,0.00
2013-12-23,57,48,40,49,44,38,99,88,72,30.39,30.25,7,2,9,0.01
2013-12-24,58,47,38,50,44,37,97,89,74,30.24,30.09,6,2,12,0.01
2013-12-25,58,55,50,54,50,46,89,82,78,30.09,29.61,15,8,31,0.00
2013-12-26,60,55,50,56,50,44,93,82,68,29.60,29.35,22,8,48,0.31
2013-12-27,59,50,45,48,45,42,91,84,68,29.89,29.47,6,1,9,0.00
2013-12-28,58,50,43,50,46,41,92,86,71,30.04,29.89,7,2,12,0.00
2013-12-29,58,55,52,54,51,48,93,88,76,30.11,30.02,9,4,18,0.01
2013-12-30,53,50,48,50,47,45,100,91,84,30.17,30.09,10,4,15,0.28
2013-12-31,59,51,46,48,46,43,95,83,67,30.11,30.05,8,3,12,0.00
2014-1-1,59,49,44,47,43,39,90,79,64,30.12,30.05,7,1,9,0.00
2014-1-2,56,50,41,52,46,39,91,85,77,30.11,30.03,8,3,17,0.01